QPF
0.01 0.01 0.01 0.00 0.00 0.00 0.00 0.00 0.00 0.00 0.00 0.00 0.00 0.00 0.00 0.01 0.01 0.00 0.00 0.00 0.01 0.02 0.03 0.04 0.03 0.02 0.02 0.02 0.03 0.03 0.03 0.02 0.01 0.01 0.01 0.01 0.02 0.03 0.04 0.05 0.05 0.05 0.06 0.06
0.01 0.00 0.00 0.00 0.00 0.00 0.00 0.00 0.00 0.00 0.00 0.00 0.00 0.01 0.01 0.02 0.02 0.01 0.01 0.01 0.01 0.01 0.02 0.04 0.04 0.04 0.04 0.04 0.04 0.04 0.03 0.02 0.01 0.01 0.01 0.02 0.02 0.02 0.03 0.04 0.05 0.05 0.04 0.05
0.00 0.00 0.00 0.00 0.00 0.01 0.01 0.00 0.00 0.00 0.01 0.01 0.00 0.01 0.01 0.02 0.02 0.02 0.01 0.01 0.01 0.01 0.01 0.03 0.05 0.06 0.06 0.06 0.07 0.05 0.04 0.03 0.03 0.03 0.03 0.03 0.02 0.02 0.02 0.04 0.05 0.06 0.05 0.05
0.01 0.00 0.00 0.00 0.00 0.01 0.01 0.00 0.00 0.00 0.01 0.01 0.01 0.01 0.00 0.01 0.01 0.01 0.02 0.01 0.01 0.01 0.01 0.02 0.03 0.05 0.05 0.04 0.04 0.04 0.03 0.03 0.03 0.03 0.03 0.03 0.04 0.03 0.03 0.04 0.05 0.05 0.06 0.06
0.01 0.00 0.00 0.00 0.00 0.00 0.01 0.01 0.01 0.01 0.01 0.02 0.01 0.01 0.00 0.00 0.00 0.01 0.02 0.01 0.01 0.01 0.02 0.02 0.03 0.03 0.04 0.04 0.03 0.04 0.03 0.03 0.03 0.03 0.03 0.03 0.04 0.04 0.04 0.04 0.05 0.06 0.06 0.08
0.01 0.00 0.00 0.00 0.00 0.00 0.00 0.01 0.01 0.01 0.02 0.02 0.01 0.01 0.00 0.00 0.00 0.01 0.02 0.01 0.01 0.01 0.02 0.02 0.02 0.03 0.02 0.02 0.02 0.02 0.03 0.03 0.02 0.02 0.02 0.02 0.02 0.03 0.03 0.03 0.04 0.04 0.04 0.04
0.01 0.01 0.00 0.00 0.00 0.00 0.01 0.01 0.03 0.03 0.03 0.01 0.00 0.01 0.01 0.00 0.01 0.01 0.01 0.01 0.01 0.01 0.02 0.02 0.01 0.02 0.02 0.02 0.01 0.01 0.02 0.02 0.03 0.03 0.02 0.02 0.01 0.02 0.02 0.02 0.02 0.02 0.03 0.03
0.02 0.01 0.01 0.01 0.01 0.01 0.00 0.01 0.02 0.02 0.01 0.00 0.00 0.01 0.01 0.00 0.01 0.01 0.01 0.01 0.01 0.01 0.02 0.02 0.02 0.02 0.02 0.02 0.01 0.01 0.01 0.01 0.02 0.02 0.02 0.01 0.01 0.01 0.01 0.01 0.01 0.01 0.01 0.01
0.02 0.01 0.01 0.01 0.02 0.01 0.01 0.01 0.01 0.02 0.01 0.01 0.01 0.00 0.00 0.00 0.00 0.01 0.01 0.01 0.02 0.02 0.02 0.02 0.02 0.02 0.02 0.02 0.01 0.01 0.01 0.01 0.01 0.01 0.01 0.01 0.01 0.00 0.00 0.00 0.00 0.00 0.00 0.01
0.01 0.01 0.00 0.00 0.01 0.01 0.01 0.01 0.01 0.02 0.02 0.01 0.01 0.00 0.00 0.00 0.00 0.00 0.00 0.01 0.02 0.02 0.02 0.02 0.02 0.03 0.03 0.03 0.02 0.01 0.01 0.01 0.00 0.00 0.01 0.01 0.00 0.00 0.00 0.00 0.00 0.00 0.00 0.01
0.01 0.01 0.01 0.01 0.01 0.02 0.03 0.02 0.02 0.01 0.01 0.01 0.00 0.00 0.00 0.00 0.00 0.00 0.00 0.01 0.01 0.02 0.02 0.02 0.02 0.02 0.03 0.02 0.02 0.02 0.01 0.01 0.01 0.00 0.00 0.01 0.01 0.01 0.00 0.00 0.00 0.00 0.00 0.00
0.01 0.02 0.01 0.01 0.01 0.01 0.03 0.03 0.02 0.02 0.01 0.01 0.01 0.00 0.00 0.00 0.00 0.00 0.00 0.00 0.01 0.01 0.01 0.01 0.01 0.01 0.01 0.01 0.01 0.01 0.01 0.01 0.01 0.00 0.01 0.01 0.01 0.01 0.01 0.00 0.00 0.00 0.00 0.00
0.02 0.03 0.03 0.01 0.01 0.01 0.01 0.01 0.03 0.03 0.02 0.01 0.01 0.00 0.00 0.00 0.00 0.00 0.00 0.00 0.00 0.00 0.01 0.01 0.01 0.00 0.00 0.00 0.00 0.00 0.00 0.00 0.01 0.00 0.00 0.01 0.01 0.00 0.00 0.00 0.00 0.00 0.00 0.00
0.02 0.02 0.01 0.01 0.01 0.01 0.01 0.01 0.01 0.03 0.04 0.02 0.00 0.00 0.00 0.00 0.00 0.00 0.00 0.00 0.00 0.00 0.00 0.01 0.01 0.01 0.00 0.00 0.00 0.00 0.00 0.00 0.01 0.00 0.00 0.00 0.01 0.00 0.00 0.00 0.00 0.00 0.00 0.00
0.02 0.02 0.01 0.00 0.00 0.00 0.01 0.01 0.01 0.02 0.02 0.02 0.01 0.00 0.00 0.00 0.00 0.00 0.00 0.00 0.00 0.00 0.00 0.00 0.01 0.00 0.00 0.00 0.00 0.00 0.00 0.00 0.01 0.01 0.00 0.00 0.00 0.00 0.00 0.00 0.00 0.00 0.00 0.00
0.03 0.03 0.01 0.00 0.00 0.00 0.01 0.01 0.01 0.01 0.01 0.01 0.01 0.01 0.00 0.00 0.00 0.00 0.00 0.00 0.00 0.00 0.00 0.00 0.00 0.00 0.00 0.00 0.00 0.00 0.00 0.00 0.00 0.00 0.00 0.00 0.00 0.00 0.00 0.00 0.00 0.00 0.00 0.00
0.03 0.03 0.03 0.02 0.00 0.01 0.01 0.01 0.01 0.01 0.02 0.02 0.01 0.01 0.01 0.01 0.00 0.00 0.00 0.00 0.00 0.00 0.00 0.00 0.00 0.00 0.00 0.00 0.00 0.00 0.00 0.00 0.00 0.00 0.00 0.00 0.00 0.00 0.00 0.00 0.00 0.00 0.01 0.01
0.03 0.03 0.04 0.04 0.02 0.02 0.02 0.01 0.01 0.01 0.01 0.02 0.02 0.02 0.01 0.01 0.01 0.00 0.00 0.00 0.00 0.00 0.00 0.01 0.00 0.00 0.00 0.00 0.00 0.00 0.00 0.00 0.00 0.00 0.00 0.01 0.01 0.00 0.00 0.00 0.00 0.01 0.01 0.01
0.02 0.03 0.05 0.04 0.03 0.01 0.01 0.01 0.01 0.01 0.01 0.02 0.02 0.02 0.02 0.02 0.01 0.01 0.00 0.00 0.00 0.00 0.00 0.01 0.01 0.00 0.00 0.00 0.00 0.00 0.00 0.00 0.00 0.00 0.01 0.01 0.01 0.01 0.01 0.00 0.00 0.01 0.01 0.02
0.02 0.03 0.05 0.05 0.03 0.01 0.01 0.00 0.01 0.01 0.01 0.01 0.01 0.02 0.01 0.01 0.02 0.02 0.01 0.00 0.00 0.00 0.00 0.01 0.01 0.00 0.00 0.00 0.00 0.00 0.00 0.00 0.00 0.00 0.00 0.01 0.01 0.01 0.01 0.01 0.01 0.01 0.01 0.01
0.03 0.04 0.05 0.04 0.03 0.01 0.00 0.00 0.00 0.01 0.01 0.01 0.01 0.01 0.01 0.01 0.01 0.02 0.01 0.01 0.00 0.00 0.01 0.00 0.00 0.00 0.00 0.00 0.00 0.00 0.00 0.00 0.00 0.00 0.00 0.00 0.00 0.01 0.02 0.02 0.02 0.01 0.01 0.01
0.01 0.02 0.02 0.02 0.03 0.01 0.00 0.00 0.00 0.01 0.01 0.01 0.01 0.01 0.00 0.00 0.00 0.01 0.01 0.01 0.01 0.01 0.01 0.00 0.00 0.00 0.00 0.00 0.00 0.00 0.00 0.00 0.00 0.00 0.00 0.01 0.01 0.01 0.01 0.02 0.03 0.02 0.02 0.02
0.01 0.01 0.01 0.01 0.01 0.00 0.00 0.00 0.01 0.01 0.01 0.01 0.01 0.00 0.00 0.00 0.00 0.01 0.01 0.01 0.01 0.02 0.02 0.01 0.00 0.00 0.00 0.00 0.00 0.00 0.00 0.00 0.00 0.00 0.00 0.01 0.01 0.01 0.01 0.01 0.03 0.03 0.02 0.03
0.00 0.00 0.01 0.01 0.01 0.00 0.00 0.00 0.01 0.01 0.01 0.01 0.01 0.01 0.01 0.01 0.01 0.01 0.01 0.01 0.01 0.02 0.02 0.01 0.00 0.00 0.00 0.00 0.00 0.00 0.00 0.00 0.00 0.01 0.01 0.01 0.01 0.01 0.01 0.02 0.02 0.03 0.03 0.03
0.01 0.01 0.01 0.01 0.01 0.00 0.00 0.00 0.00 0.00 0.00 0.00 0.00 0.00 0.00 0.01 0.01 0.01 0.01 0.01 0.01 0.01 0.02 0.01 0.01 0.00 0.00 0.00 0.00 0.00 0.00 0.00 0.01 0.01 0.01 0.01 0.01 0.01 0.01 0.02 0.02 0.02 0.02 0.03
0.01 0.01 0.01 0.01 0.00 0.00 0.00 0.00 0.00 0.00 0.00 0.00 0.00 0.00 0.00 0.00 0.01 0.01 0.00 0.00 0.01 0.01 0.01 0.01 0.01 0.01 0.00 0.00 0.00 0.00 0.00 0.01 0.01 0.01 0.01 0.01 0.01 0.01 0.02 0.02 0.02 0.03 0.03 0.02
MSLP
1012.77 1012.89 1012.85 1012.59 1012.10 1011.38 1010.44 1009.32 1008.06 1006.71 1005.36 1004.06 1002.89 1001.91 1001.16 1000.68 1000.48 1000.52 1000.76 1001.15 1001.63 1002.12 1002.58 1002.99 1003.33 1003.63 1003.93 1004.28 1004.71 1005.25 1005.93 1006.71 1007.55 1008.43 1009.27 1010.04 1010.70 1011.25 1011.70 1012.09 1012.45 1012.82 1013.24 1013.73
1011.95 1011.95 1011.79 1011.45 1010.92 1010.19 1009.28 1008.19 1006.96 1005.64 1004.28 1002.95 1001.73 1000.69 999.90 999.40 999.22 999.32 999.67 1000.19 1000.81 1001.45 1002.04 1002.54 1002.93 1003.24 1003.52 1003.81 1004.18 1004.66 1005.28 1006.03 1006.86 1007.74 1008.60 1009.40 1010.09 1010.67 1011.14 1011.54 1011.91 1012.28 1012.69 1013.16
1010.63 1010.47 1010.19 1009.78 1009.24 1008.57 1007.75 1006.78 1005.68 1004.46 1003.18 1001.88 1000.65 999.56 998.71 998.16 997.94 998.04 998.43 999.03 999.76 1000.52 1001.23 1001.83 1002.31 1002.67 1002.97 1003.25 1003.59 1004.04 1004.62 1005.33 1006.14 1007.01 1007.87 1008.68 1009.40 1010.01 1010.52 1010.95 1011.34 1011.72 1012.13 1012.58
1008.93 1008.57 1008.15 1007.69 1007.18 1006.60 1005.95 1005.18 1004.29 1003.25 1002.11 1000.89 999.68 998.57 997.65 997.01 996.70 996.73 997.09 997.69 998.46 999.30 1000.11 1000.82 1001.41 1001.87 1002.24 1002.57 1002.94 1003.38 1003.95 1004.63 1005.42 1006.26 1007.11 1007.92 1008.66 1009.29 1009.83 1010.30 1010.72 1011.12 1011.54 1011.98
1007.12 1006.53 1005.95 1005.43 1004.95 1004.50 1004.03 1003.50 1002.86 1002.06 1001.10 1000.01 998.86 997.73 996.74 995.99 995.55 995.45 995.70 996.24 996.99 997.86 998.74 999.55 1000.26 1000.84 1001.33 1001.76 1002.20 1002.69 1003.27 1003.94 1004.70 1005.52 1006.34 1007.13 1007.86 1008.51 1009.08 1009.58 1010.04 1010.47 1010.90 1011.34
1005.54 1004.68 1003.93 1003.31 1002.84 1002.49 1002.20 1001.89 1001.49 1000.93 1000.17 999.23 998.15 997.03 995.97 995.10 994.51 994.25 994.35 994.77 995.45 996.29 997.20 998.09 998.91 999.63 1000.26 1000.83 1001.37 1001.94 1002.55 1003.24 1003.98 1004.76 1005.54 1006.30 1007.01 1007.66 1008.24 1008.78 1009.27 1009.74 1010.20 1010.64
1004.49 1003.37 1002.41 1001.66 1001.15 1000.83 1000.64 1000.50 1000.28 999.91 999.33 998.52 997.52 996.41 995.30 994.33 993.59 993.18 993.11 993.39 993.95 994.73 995.63 996.57 997.48 998.32 999.09 999.79 1000.46 1001.12 1001.79 1002.50 1003.23 1003.97 1004.71 1005.43 1006.11 1006.74 1007.33 1007.88 1008.41 1008.92 1009.41 1009.88
1004.18 1002.81 1001.64 1000.73 1000.10 999.73 999.54 999.44 999.31 999.04 998.56 997.84 996.90 995.82 994.70 993.66 992.82 992.27 992.06 992.19 992.63 993.32 994.17 995.11 996.07 997.00 997.88 998.70 999.48 1000.23 1000.97 1001.70 1002.43 1003.14 1003.84 1004.51 1005.15 1005.75 1006.34 1006.91 1007.46 1008.01 1008.54 1009.06
1004.65 1003.09 1001.72 1000.62 999.81 999.29 998.98 998.79 998.60 998.32 997.85 997.16 996.27 995.22 994.12 993.07 992.19 991.56 991.25 991.27 991.59 992.18 992.96 993.87 994.83 995.80 996.74 997.64 998.50 999.32 1000.11 1000.86 1001.58 1002.27 1002.93 1003.55 1004.15 1004.73 1005.31 1005.88 1006.46 1007.05 1007.63 1008.19
1005.78 1004.10 1002.57 1001.27 1000.24 999.48 998.93 998.53 998.17 997.75 997.20 996.49 995.60 994.59 993.54 992.54 991.69 991.07 990.72 990.68 990.92 991.42 992.11 992.95 993.87 994.81 995.76 996.69 997.58 998.43 999.24 1000.00 1000.72 1001.38 1002.00 1002.59 1003.16 1003.72 1004.29 1004.87 1005.47 1006.09 1006.71 1007.31
1007.29 1005.58 1003.96 1002.49 1001.23 1000.18 999.33 998.62 997.98 997.33 996.62 995.82 994.92 993.96 992.99 992.10 991.35 990.80 990.50 990.46 990.67 991.10 991.71 992.45 993.28 994.15 995.05 995.94 996.81 997.65 998.45 999.20 999.89 1000.54 1001.14 1001.70 1002.25 1002.79 1003.36 1003.95 1004.57 1005.21 1005.86 1006.51
1008.84 1007.20 1005.55 1003.97 1002.50 1001.17 999.99 998.94 997.97 997.05 996.14 995.22 994.29 993.38 992.53 991.79 991.19 990.79 990.59 990.60 990.81 991.20 991.74 992.38 993.10 993.87 994.66 995.47 996.27 997.06 997.81 998.53 999.20 999.82 1000.40 1000.95 1001.49 1002.03 1002.59 1003.19 1003.82 1004.48 1005.16 1005.84
1010.14 1008.64 1007.05 1005.41 1003.80 1002.24 1000.77 999.40 998.12 996.93 995.81 994.77 993.82 992.97 992.24 991.66 991.25 991.02 990.96 991.07 991.32 991.70 992.17 992.72 993.32 993.96 994.64 995.32 996.03 996.73 997.41 998.08 998.71 999.30 999.87 1000.41 1000.95 1001.49 1002.07 1002.68 1003.32 1003.99 1004.68 1005.38
1011.01 1009.70 1008.22 1006.61 1004.94 1003.24 1001.56 999.95 998.42 997.01 995.73 994.59 993.63 992.83 992.22 991.80 991.57 991.51 991.59 991.81 992.11 992.49 992.93 993.39 993.89 994.41 994.95 995.51 996.10 996.70 997.30 997.90 998.48 999.04 999.59 1000.13 1000.67 1001.24 1001.83 1002.45 1003.11 1003.79 1004.49 1005.19
1011.42 1010.32 1008.99 1007.47 1005.82 1004.08 1002.31 1000.56 998.90 997.36 995.98 994.79 993.82 993.08 992.56 992.27 992.18 992.25 992.45 992.75 993.10 993.49 993.89 994.30 994.70 995.12 995.55 996.00 996.47 996.97 997.49 998.02 998.55 999.08 999.61 1000.15 1000.70 1001.28 1001.89 1002.53 1003.21 1003.90 1004.61 1005.31
1011.49 1010.56 1009.40 1008.02 1006.46 1004.78 1003.04 1001.29 999.60 998.04 996.64 995.45 994.49 993.79 993.33 993.10 993.08 993.22 993.47 993.81 994.18 994.57 994.95 995.31 995.66 996.00 996.35 996.72 997.11 997.52 997.96 998.43 998.91 999.40 999.92 1000.45 1001.02 1001.61 1002.25 1002.91 1003.61 1004.32 1005.03 1005.75
1011.41 1010.61 1009.59 1008.36 1006.95 1005.42 1003.80 1002.16 1000.57 999.08 997.74 996.59 995.66 994.97 994.52 994.29 994.25 994.38 994.61 994.92 995.28 995.64 995.99 996.33 996.65 996.96 997.28 997.60 997.93 998.29 998.68 999.09 999.52 999.99 1000.48 1001.01 1001.59 1002.20 1002.86 1003.55 1004.27 1005.00 1005.74 1006.46
1011.37 1010.63 1009.71 1008.63 1007.40 1006.06 1004.65 1003.22 1001.81 1000.47 999.25 998.18 997.29 996.59 996.09 995.79 995.66 995.67 995.81 996.03 996.32 996.63 996.95 997.28 997.60 997.92 998.23 998.55 998.88 999.22 999.57 999.95 1000.35 1000.78 1001.26 1001.78 1002.35 1002.98 1003.66 1004.38 1005.13 1005.89 1006.65 1007.39
1011.50 1010.77 1009.91 1008.95 1007.90 1006.78 1005.61 1004.43 1003.26 1002.13 1001.07 1000.09 999.23 998.51 997.92 997.49 997.20 997.05 997.03 997.11 997.28 997.52 997.81 998.13 998.48 998.83 999.19 999.54 999.89 1000.23 1000.58 1000.93 1001.31 1001.72 1002.17 1002.68 1003.25 1003.89 1004.58 1005.33 1006.10 1006.89 1007.67 1008.44
1011.83 1011.06 1010.23 1009.36 1008.47 1007.57 1006.66 1005.74 1004.83 1003.92 1003.03 1002.16 1001.34 1000.57 999.87 999.28 998.79 998.44 998.22 998.14 998.18 998.33 998.59 998.91 999.29 999.70 1000.12 1000.52 1000.91 1001.29 1001.64 1001.99 1002.35 1002.73 1003.16 1003.65 1004.22 1004.85 1005.55 1006.31 1007.10 1007.91 1008.71 1009.50
1012.27 1011.45 1010.63 1009.84 1009.08 1008.37 1007.70 1007.04 1006.38 1005.69 1004.97 1004.20 1003.40 1002.59 1001.79 1001.03 1000.36 999.80 999.39 999.13 999.05 999.12 999.34 999.67 1000.09 1000.56 1001.04 1001.51 1001.95 1002.35 1002.72 1003.07 1003.41 1003.78 1004.18 1004.65 1005.19 1005.81 1006.51 1007.27 1008.06 1008.88 1009.70 1010.50
1012.70 1011.83 1011.02 1010.29 1009.66 1009.12 1008.65 1008.22 1007.78 1007.28 1006.71 1006.04 1005.28 1004.43 1003.54 1002.65 1001.82 1001.09 1000.52 1000.13 999.93 999.94 1000.13 1000.47 1000.92 1001.44 1001.98 1002.50 1002.98 1003.41 1003.79 1004.14 1004.47 1004.81 1005.19 1005.63 1006.14 1006.74 1007.42 1008.16 1008.95 1009.76 1010.57 1011.36
1012.97 1012.10 1011.32 1010.66 1010.14 1009.75 1009.45 1009.20 1008.93 1008.60 1008.16 1007.57 1006.85 1006.00 1005.06 1004.08 1003.15 1002.31 1001.63 1001.14 1000.88 1000.84 1001.02 1001.37 1001.84 1002.38 1002.95 1003.50 1004.00 1004.45 1004.83 1005.16 1005.47 1005.79 1006.14 1006.56 1007.05 1007.62 1008.27 1008.99 1009.74 1010.53 1011.31 1012.09
1013.02 1012.20 1011.48 1010.91 1010.49 1010.22 1010.06 1009.94 1009.81 1009.60 1009.26 1008.75 1008.07 1007.24 1006.30 1005.30 1004.33 1003.45 1002.72 1002.20 1001.91 1001.86 1002.03 1002.37 1002.85 1003.40 1003.97 1004.51 1005.01 1005.44 1005.80 1006.12 1006.41 1006.71 1007.04 1007.43 1007.90 1008.44 1009.06 1009.74 1010.46 1011.21 1011.95 1012.69
1012.87 1012.13 1011.52 1011.05 1010.74 1010.58 1010.52 1010.50 1010.46 1010.33 1010.06 1009.61 1008.98 1008.19 1007.29 1006.32 1005.38 1004.52 1003.82 1003.31 1003.04 1002.99 1003.15 1003.49 1003.94 1004.46 1005.00 1005.51 1005.97 1006.37 1006.70 1006.99 1007.27 1007.55 1007.87 1008.25 1008.70 1009.23 1009.82 1010.46 1011.14 1011.84 1012.53 1013.22
1012.60 1012.00 1011.51 1011.16 1010.96 1010.89 1010.90 1010.95 1010.95 1010.87 1010.63 1010.23 1009.65 1008.92 1008.08 1007.19 1006.32 1005.54 1004.91 1004.46 1004.22 1004.19 1004.35 1004.66 1005.07 1005.54 1006.02 1006.46 1006.87 1007.21 1007.51 1007.78 1008.04 1008.32 1008.65 1009.03 1009.48 1010.00 1010.58 1011.19 1011.83 1012.48 1013.12 1013.75
Thickness
5562 5556 5553 5555 5554 5558 5555 5550 5549 5551 5553 5551 5552 5557 5567 5568 5568 5568 5568 5567 5568 5569 5570 5570 5570 5569 5568 5567 5566 5565 5565 5564 5563 5562 5561 5561 5562 5564 5566 5567 5568 5570 5570 5570
5549 5549 5554 5552 5550 5548 5546 5544 5542 5543 5546 5545 5543 5550 5561 5563 5564 5565 5565 5563 5561 5560 5561 5561 5560 5560 5560 5559 5559 5558 5557 5555 5555 5555 5554 5554 5554 5554 5556 5557 5558 5559 5560 5560
5548 5548 5550 5548 5543 5541 5540 5537 5536 5535 5535 5536 5536 5547 5556 5558 5557 5559 5558 5557 5555 5554 5554 5553 5552 5551 5550 5551 5550 5551 5549 5548 5547 5546 5545 5544 5544 5544 5544 5545 5547 5548 5549 5550
5537 5540 5542 5539 5536 5535 5532 5534 5532 5529 5523 5520 5525 5526 5546 5548 5548 5552 5551 5548 5546 5546 5545 5544 5543 5542 5542 5542 5542 5541 5540 5540 5538 5537 5537 5537 5537 5536 5537 5537 5537 5537 5538 5539
5531 5532 5532 5531 5530 5528 5525 5525 5522 5518 5513 5507 5510 5509 5533 5538 5543 5546 5544 5540 5537 5536 5535 5535 5534 5534 5534 5533 5532 5531 5531 5530 5528 5527 5527 5526 5526 5526 5526 5525 5525 5526 5526 5527
5523 5524 5524 5524 5523 5521 5516 5513 5506 5496 5495 5500 5502 5500 5518 5528 5537 5538 5535 5531 5527 5525 5524 5524 5524 5523 5523 5522 5521 5520 5519 5518 5517 5516 5516 5516 5515 5515 5514 5514 5514 5515 5515 5515
5517 5517 5515 5515 5513 5510 5509 5502 5493 5490 5480 5491 5491 5491 5511 5527 5527 5525 5523 5520 5516 5514 5513 5513 5513 5513 5512 5511 5510 5509 5509 5508 5507 5506 5505 5505 5505 5504 5504 5504 5503 5503 5503 5503
5505 5506 5506 5504 5505 5501 5498 5499 5491 5488 5478 5479 5480 5484 5510 5518 5516 5513 5510 5506 5504 5502 5501 5502 5503 5502 5500 5500 5499 5498 5497 5497 5496 5495 5494 5494 5494 5493 5493 5493 5492 5492 5492 5492
5494 5497 5496 5496 5496 5496 5490 5482 5482 5466 5454 5457 5472 5479 5499 5511 5508 5504 5500 5497 5495 5493 5491 5491 5491 5491 5490 5489 5488 5488 5487 5486 5485 5484 5483 5483 5483 5483 5482 5481 5481 5481 5481 5481
5485 5480 5485 5485 5488 5484 5483 5472 5461 5460 5463 5464 5469 5472 5489 5502 5502 5496 5491 5488 5486 5484 5482 5481 5481 5481 5481 5479 5478 5477 5476 5476 5475 5474 5473 5473 5472 5472 5471 5470 5470 5470 5471 5471
5476 5469 5470 5472 5473 5472 5468 5465 5459 5447 5448 5451 5453 5478 5492 5492 5491 5485 5481 5478 5476 5474 5472 5471 5471 5471 5470 5469 5467 5467 5466 5465 5464 5464 5463 5462 5461 5461 5460 5460 5460 5460 5460 5460
5463 5454 5453 5460 5463 5464 5464 5460 5451 5449 5440 5430 5438 5468 5488 5480 5478 5475 5472 5469 5466 5465 5462 5461 5460 5459 5458 5458 5458 5457 5456 5455 5454 5453 5452 5451 5450 5450 5450 5450 5450 5450 5450 5449
5454 5447 5450 5458 5453 5449 5449 5448 5441 5434 5427 5418 5429 5465 5477 5469 5468 5466 5463 5460 5457 5455 5453 5451 5450 5449 5448 5448 5448 5447 5447 5446 5445 5444 5442 5441 5440 5440 5440 5440 5440 5440 5439 5439
5452 5439 5445 5454 5456 5442 5438 5440 5433 5429 5425 5424 5435 5457 5468 5464 5461 5459 5455 5451 5447 5445 5443 5442 5440 5439 5438 5438 5438 5438 5437 5437 5436 5435 5433 5432 5431 5431 5430 5430 5430 5429 5429 5429
5440 5432 5428 5432 5435 5432 5433 5435 5429 5427 5431 5432 5443 5442 5458 5456 5452 5450 5446 5442 5441 5438 5436 5434 5432 5430 5429 5429 5429 5429 5428 5427 5426 5425 5424 5423 5422 5421 5421 5420 5420 5420 5420 5419
5423 5420 5416 5422 5428 5426 5427 5435 5432 5430 5430 5429 5435 5444 5451 5446 5442 5439 5436 5434 5432 5431 5429 5427 5424 5422 5421 5421 5420 5419 5418 5418 5416 5415 5414 5413 5413 5412 5411 5411 5411 5411 5411 5410
5411 5408 5411 5415 5413 5419 5428 5437 5434 5430 5428 5429 5433 5445 5443 5438 5437 5433 5430 5426 5424 5423 5421 5418 5416 5414 5413 5412 5411 5410 5409 5408 5406 5405 5404 5404 5404 5404 5403 5403 5402 5402 5401 5401
5406 5402 5398 5398 5402 5415 5445 5436 5433 5430 5429 5425 5431 5434 5432 5430 5427 5423 5420 5417 5415 5414 5412 5409 5407 5405 5403 5402 5401 5400 5398 5397 5397 5396 5395 5395 5395 5395 5394 5394 5393 5393 5393 5393
5405 5400 5391 5387 5392 5409 5430 5430 5422 5420 5425 5425 5423 5425 5423 5418 5415 5414 5413 5410 5408 5405 5403 5400 5398 5396 5394 5393 5391 5389 5388 5387 5387 5387 5387 5387 5387 5387 5387 5386 5385 5385 5384 5384
5393 5393 5387 5381 5389 5404 5430 5426 5419 5418 5417 5424 5418 5416 5411 5407 5405 5409 5408 5403 5399 5396 5394 5391 5389 5386 5385 5384 5382 5380 5379 5378 5378 5379 5379 5379 5379 5379 5379 5379 5378 5377 5377 5377
5386 5383 5384 5381 5382 5400 5417 5413 5412 5411 5417 5419 5411 5407 5401 5398 5400 5400 5397 5393 5390 5388 5386 5384 5381 5378 5377 5375 5373 5372 5371 5370 5371 5371 5371 5372 5372 5372 5372 5371 5371 5370 5370 5370
5389 5383 5378 5376 5380 5402 5412 5403 5406 5412 5412 5409 5404 5399 5394 5391 5390 5388 5386 5384 5381 5379 5377 5375 5372 5370 5369 5367 5366 5364 5363 5363 5363 5363 5364 5364 5365 5365 5365 5364 5364 5363 5363 5363
5386 5393 5389 5392 5406 5408 5402 5403 5405 5403 5402 5401 5397 5393 5389 5385 5383 5381 5378 5375 5372 5371 5369 5367 5364 5362 5360 5359 5358 5356 5357 5356 5356 5356 5357 5358 5358 5358 5358 5357 5357 5357 5357 5356
5379 5379 5380 5381 5394 5398 5396 5395 5396 5394 5394 5393 5390 5386 5383 5379 5376 5372 5370 5367 5365 5363 5361 5359 5356 5354 5353 5352 5351 5350 5350 5350 5350 5350 5351 5352 5352 5352 5352 5352 5352 5352 5351 5351
5384 5371 5374 5378 5388 5390 5394 5391 5391 5390 5387 5385 5383 5379 5376 5372 5368 5365 5362 5360 5357 5357 5354 5352 5349 5348 5346 5346 5345 5345 5345 5344 5344 5344 5345 5346 5347 5346 5346 5347 5347 5347 5348 5348
5377 5375 5378 5391 5393 5389 5393 5392 5388 5384 5382 5379 5376 5372 5369 5366 5362 5358 5355 5353 5351 5350 5348 5345 5343 5342 5341 5340 5340 5340 5340 5339 5339 5340 5340 5340 5340 5340 5340 5341 5342 5344 5344 5346